sat.trackr.live / text

‹ back to catalog

STARLINK-3631

NORAD 51790 · 2022-017Y

PAYLOAD ACTIVE UNKNOWN

§ Identity

Operator
Country
US
Launch date
2022-02-25
Launch site
AFWTR
Launch vehicle
Mass (kg)
RCS (m²)

Purposes: comms

External: N2YO · Heavens-Above · Gunter

§ Orbital elements

Epoch: 2026-09-20T04:12:04.091040Z

Period
95.29 min
Inclination
53.2121°
Eccentricity
0.0003018
Mean motion
15.11134091 rev/d
Perigee alt
530.7 km
Apogee alt
534.8 km
Semi-major
6,910.9 km
B*
5.5529e-4
RAAN
195.1621°
Arg perigee
89.8380°
Mean anomaly
270.2959°
Rev number
25,334

§ Raw data

STARLINK-36311 51790U 22017Y   26263.17504735  .00009132  00000+0  55529-3 0  99982 51790  53.2121 195.1621 0003018  89.8380 270.2959 15.11134091253348

JSON: /api/v1/satellites/51790 · /tle

For live sub-satellite position, see the globe view (requires WebGL).

§ Visibility from observer

Set your observer location to see the next 7 days of passes ≥ 10°. The values pass through the URL so the page stays shareable.

No JS? Fill the form by hand. The geolocation button needs JavaScript.